Superior, WI

9:12 AM CDT on April 29, 2017 (GMT -0500)
Bong

Weather History for KSUW - December, 2012

Change the Weather History Date:

Thursday, December 6, 2012

  Actual Average Record
Temperature  
Mean Temperature 34 °F -  
Max Temperature 42 °F 27 °F 45 °F (1988)
Min Temperature 27 °F 10 °F -15 °F (1955)
Degree Days  
Heating Degree Days 30    
Moisture  
Dew Point 25 °F    
Average Humidity 65    
Maximum Humidity 75    
Minimum Humidity 49    
Precipitation  
Precipitation 0.00 in - - ()
Sea Level Pressure  
Sea Level Pressure 29.80 in    
Wind  
Wind Speed 11 mph (WSW)    
Max Wind Speed 17 mph    
Max Gust Speed 24 mph    
Visibility 10 miles    
Events      
Averages and records for this station are not official NWS values.
T = Trace of Precipitation, MM = Missing Value Source: NWS Daily Summary

Daily Weather History Graph

Daily Weather History Graph

Search for Another Location

Airport or City:

Trip Planner

Search our weather history database for the weather conditions in past years. The results will help you decide how hot, cold, wet, or windy it might be!

Date:

Astronomy

Dec. 06, 2012 Rise Set
Actual Time 7:38 AM CST 4:20 PM CST
Civil Twilight 7:03 AM CST 4:55 PM CST
Nautical Twilight 6:25 AM CST 5:33 PM CST
Astronomical Twilight 5:48 AM CST 6:10 PM CST
Moon No Moon Rise 12:09 PM CST (12/6)
Length of Visible Light 9h 51m
Length of Day
8h 42m
Waning Gibbous, 49% of the Moon is Illuminated
Dec 6
Waning Gibbous
Dec 13
New
Dec 19
First Quarter
Dec 28
Full
Jan 4
Last Quarter

Hourly Weather History & Observations

Time (CST) Temp. Windchill Dew Point Humidity Pressure Visibility Wind Dir Wind Speed Gust Speed Precip Events Conditions
12:15 AM 36.9 °F 29.1 °F 19.4 °F 49% 29.83 in 10.0 mi SSW 11.5 mph 17.3 mph N/A   Overcast
12:35 AM 37.4 °F 29.8 °F 19.9 °F 49% 29.82 in 10.0 mi SSW 11.5 mph 23.0 mph N/A   Overcast
12:55 AM 36.9 °F 29.6 °F 19.9 °F 50% 29.81 in 10.0 mi SW 10.4 mph - N/A   Overcast
1:15 AM 37.2 °F 31.2 °F 20.3 °F 50% 29.81 in 10.0 mi SW 8.1 mph - N/A   Overcast
1:35 AM 37.8 °F 31.8 °F 21.2 °F 51% 29.81 in 10.0 mi SW 8.1 mph - N/A   Overcast
1:55 AM 38.3 °F 31.4 °F 21.9 °F 52% 29.80 in 10.0 mi SW 10.4 mph - N/A   Overcast
2:15 AM 39.2 °F 32.5 °F 22.1 °F 50% 29.81 in 10.0 mi SW 10.4 mph - N/A   Overcast
2:35 AM 39.2 °F 32.5 °F 22.5 °F 51% 29.81 in 10.0 mi SW 10.4 mph - N/A   Overcast
2:55 AM 39.2 °F 32.5 °F 23.0 °F 52% 29.80 in 10.0 mi SW 10.4 mph 16.1 mph N/A   Overcast
3:15 AM 39.2 °F 32.5 °F 23.0 °F 52% 29.78 in 10.0 mi SSW 10.4 mph - N/A   Overcast
3:35 AM 39.2 °F 33.6 °F 23.2 °F 53% 29.77 in 10.0 mi SW 8.1 mph 18.4 mph N/A   Overcast
3:55 AM 39.2 °F 34.2 °F 23.5 °F 53% 29.76 in 10.0 mi WSW 6.9 mph - N/A   Overcast
4:15 AM 39.2 °F 33.6 °F 24.6 °F 56% 29.75 in 10.0 mi SW 8.1 mph - N/A   Overcast
4:35 AM 39.7 °F 32.3 °F 27.3 °F 61% 29.72 in 10.0 mi SSW 12.7 mph 18.4 mph N/A   Overcast
4:55 AM 39.9 °F 34.5 °F 27.9 °F 62% 29.73 in 10.0 mi SW 8.1 mph 18.4 mph N/A   Overcast
5:15 AM 40.1 °F 32.4 °F 28.0 °F 62% 29.73 in 10.0 mi SW 13.8 mph - N/A   Overcast
5:35 AM 40.6 °F 33.8 °F 28.0 °F 61% 29.70 in 10.0 mi SSW 11.5 mph 20.7 mph N/A   Scattered Clouds
5:55 AM 41.0 °F 32.5 °F 27.9 °F 60% 29.70 in 10.0 mi SW 17.3 mph 24.2 mph N/A   Mostly Cloudy
6:15 AM 41.0 °F 33.1 °F 28.0 °F 60% 29.70 in 10.0 mi SW 15.0 mph 21.9 mph N/A   Mostly Cloudy
6:35 AM 40.5 °F 32.1 °F 28.4 °F 62% 29.70 in 10.0 mi SW 16.1 mph 19.6 mph N/A   Scattered Clouds
6:55 AM 40.5 °F 33.6 °F 28.9 °F 64% 29.70 in 10.0 mi SW 11.5 mph - N/A   Clear
7:15 AM 39.7 °F 32.7 °F 29.3 °F 66% 29.69 in 10.0 mi SW 11.5 mph - N/A   Clear
7:35 AM 39.7 °F 33.7 °F 30.2 °F 69% 29.70 in 10.0 mi SW 9.2 mph - N/A   Clear
7:55 AM 39.4 °F 35.2 °F 30.7 °F 71% 29.70 in 10.0 mi SW 5.8 mph - N/A   Scattered Clouds
8:15 AM 39.2 °F 35.0 °F 31.1 °F 73% 29.70 in 10.0 mi West 5.8 mph - N/A   Clear
8:35 AM 38.5 °F 36.1 °F 31.1 °F 75% 29.70 in 10.0 mi SW 3.5 mph - N/A   Clear
8:55 AM 39.9 °F 34.5 °F 32.0 °F 73% 29.71 in 10.0 mi WSW 8.1 mph - N/A   Clear
9:15 AM 40.5 °F 34.1 °F 32.2 °F 72% 29.71 in 10.0 mi WSW 10.4 mph - N/A   Clear
9:35 AM 40.1 °F 33.6 °F 32.2 °F 73% 29.72 in 10.0 mi WSW 10.4 mph - N/A   Clear
9:55 AM 42.3 °F 34.8 °F 32.0 °F 67% 29.72 in 10.0 mi West 15.0 mph 20.7 mph N/A   Clear
10:15 AM 41.2 °F 33.4 °F 31.5 °F 68% 29.73 in 10.0 mi West 15.0 mph 20.7 mph N/A   Scattered Clouds
10:35 AM 40.5 °F 32.1 °F 30.2 °F 67% 29.74 in 10.0 mi West 16.1 mph 23.0 mph N/A   Mostly Cloudy
10:55 AM 39.2 °F 30.2 °F 29.1 °F 67% 29.74 in 10.0 mi West 17.3 mph 23.0 mph N/A   Overcast
11:15 AM 39.0 °F 31.4 °F 29.1 °F 68% 29.74 in 10.0 mi West 12.7 mph 18.4 mph N/A   Mostly Cloudy
11:35 AM 41.0 °F 34.3 °F 29.3 °F 63% 29.74 in 10.0 mi West 11.5 mph 16.1 mph N/A   Overcast
11:55 AM 41.5 °F 34.2 °F 28.9 °F 61% 29.74 in 10.0 mi West 13.8 mph 17.3 mph N/A   Overcast
12:15 PM 41.0 °F 33.9 °F 28.9 °F 62% 29.74 in 10.0 mi West 12.7 mph - N/A   Overcast
12:35 PM 40.3 °F 33.0 °F 28.8 °F 63% 29.74 in 10.0 mi West 12.7 mph 20.7 mph N/A   Overcast
12:55 PM 40.1 °F 32.7 °F 28.4 °F 63% 29.75 in 10.0 mi West 12.7 mph - N/A   Overcast
1:15 PM 39.4 °F 30.7 °F 28.8 °F 66% 29.75 in 10.0 mi WNW 16.1 mph 23.0 mph N/A   Overcast
1:35 PM 39.2 °F 30.8 °F 28.4 °F 65% 29.76 in 10.0 mi WNW 15.0 mph 18.4 mph N/A   Overcast
1:55 PM 38.3 °F 30.5 °F 28.2 °F 67% 29.77 in 10.0 mi WNW 12.7 mph 18.4 mph N/A   Overcast
2:15 PM 37.0 °F 28.9 °F 27.7 °F 69% 29.78 in 10.0 mi WNW 12.7 mph 19.6 mph N/A   Overcast
2:35 PM 36.5 °F 27.4 °F 27.5 °F 70% 29.79 in 10.0 mi West 15.0 mph 19.6 mph N/A   Overcast
2:55 PM 35.8 °F 27.3 °F 27.3 °F 71% 29.80 in 10.0 mi West 12.7 mph - N/A   Overcast
3:15 PM 35.2 °F 26.6 °F 27.3 °F 73% 29.81 in 10.0 mi WNW 12.7 mph 19.6 mph N/A   Overcast
3:35 PM 34.9 °F 26.6 °F 27.3 °F 74% 29.82 in 10.0 mi West 11.5 mph 17.3 mph N/A   Overcast
3:55 PM 33.8 °F 25.3 °F 26.2 °F 74% 29.83 in 10.0 mi West 11.5 mph - N/A   Overcast
4:15 PM 33.1 °F 23.4 °F 24.8 °F 72% 29.84 in 10.0 mi West 13.8 mph 19.6 mph N/A   Overcast
4:35 PM 32.0 °F 20.8 °F 23.4 °F 70% 29.86 in 10.0 mi West 17.3 mph 21.9 mph N/A   Overcast
4:55 PM 32.0 °F 22.5 °F 23.0 °F 69% 29.87 in 10.0 mi West 12.7 mph 19.6 mph N/A   Overcast
5:15 PM 32.0 °F 22.1 °F 22.5 °F 68% 29.87 in 10.0 mi West 13.8 mph 21.9 mph N/A   Overcast
5:35 PM 31.6 °F 23.7 °F 22.1 °F 68% 29.87 in 10.0 mi West 9.2 mph 21.9 mph N/A   Overcast
5:55 PM 31.5 °F 24.2 °F 22.1 °F 68% 29.87 in 10.0 mi WNW 8.1 mph - N/A   Overcast
6:15 PM 31.1 °F 22.4 °F 22.1 °F 69% 29.88 in 10.0 mi WNW 10.4 mph - N/A   Overcast
6:35 PM 30.9 °F 20.2 °F 21.4 °F 68% 29.89 in 10.0 mi WNW 15.0 mph - N/A   Mostly Cloudy
6:55 PM 30.4 °F 21.5 °F 21.2 °F 69% 29.90 in 10.0 mi West 10.4 mph 17.3 mph N/A   Mostly Cloudy
7:15 PM 29.8 °F 23.9 °F 21.0 °F 70% 29.90 in 10.0 mi WNW 5.8 mph - N/A   Mostly Cloudy
7:35 PM 29.3 °F 19.6 °F 20.8 °F 71% 29.92 in 10.0 mi WNW 11.5 mph 17.3 mph N/A   Scattered Clouds
7:55 PM 28.4 °F 24.6 °F 20.3 °F 72% 29.92 in 10.0 mi West 3.5 mph - N/A   Scattered Clouds
8:35 PM 28.4 °F 18.0 °F 20.1 °F 71% 29.93 in 10.0 mi WNW 12.7 mph 20.7 mph N/A   Mostly Cloudy
8:55 PM 27.5 °F 20.2 °F 19.9 °F 73% 29.92 in 10.0 mi West 6.9 mph - N/A   Scattered Clouds
9:15 PM 28.0 °F 22.8 °F 20.3 °F 73% 29.93 in 10.0 mi WNW 4.6 mph - N/A   Mostly Cloudy
9:35 PM 28.4 °F 19.1 °F 20.7 °F 73% 29.93 in 10.0 mi WNW 10.4 mph 16.1 mph N/A   Overcast
9:55 PM 28.0 °F 20.8 °F 20.5 °F 73% 29.93 in 10.0 mi West 6.9 mph - N/A   Overcast
10:15 PM 28.2 °F 19.5 °F 20.8 °F 74% 29.94 in 10.0 mi West 9.2 mph - N/A   Overcast
10:35 PM 28.2 °F 22.0 °F 20.3 °F 72% 29.94 in 10.0 mi WNW 5.8 mph 16.1 mph N/A   Overcast
10:55 PM 27.9 °F 22.6 °F 20.3 °F 73% 29.94 in 10.0 mi West 4.6 mph - N/A   Overcast
11:15 PM 27.5 °F 22.2 °F 20.3 °F 74% 29.95 in 10.0 mi WNW 4.6 mph - N/A   Overcast
11:35 PM 27.3 °F 19.1 °F 20.3 °F 75% 29.95 in 10.0 mi West 8.1 mph - N/A   Overcast
11:55 PM 27.1 °F 18.2 °F 19.0 °F 72% 29.96 in 10.0 mi West 9.2 mph - N/A   Overcast